Content
SEND FEEDBACK

Daily
Averages
Monthly
Summary
Canada

QUEBEC CITY, QUEBEC


Home > North America > Canada > Quebec
Elevation: 239 feet     Latitude: 46 48N     Longitude: 071 23W

WEATHER
 
SELECT A DAY
Number of Records: 192,737;   Date Range: 6/30/96 - 9/8/14
 
SHARE

PRINT THIS DATA

[ ← Previous Day ]
WEATHER ALMANAC - FEBRUARY 1, 2013
[ Next Day → ]
[ °C ]   °F
Weather ElementAverageHighLow
Temperature6.2 °F9 °F (1:00 pm)-0.4 °F (11:00 pm)
Dewpoint-6.9 °F (1:15 am)-13 °F (10:00 pm)
Humidity50.8 %61 % (6:00 am)39 % (4:00 pm)
Barometer27.90 in30.06 in (11:00 pm) (7:00 pm)
Wind Speed16.7 mph25.3 mph (2:00 am)
Wind Gust32.2 mph (1:00 am)
Weather ElementAverage
Visibility18.8 mi
Wind DirectionW (267.5 °)

Weather ElementTotal
Precipitation---
Heating Degree Days60.7 (Base 65)
Averaged from 32 records on February 1, 2013
WEATHER CONDITIONS BREAKOUT
WIND DIRECTION BREAKOUT
WEATHER BY HOUR - FEBRUARY 1, 2013
[ °C ]   °F
Local TimeTemperatureDewpointHumidityBarometerVisibilityWind DirectionWind SpeedGust SpeedPrecipitationEventsConditions
1:00 AM8.6 °F-5.8 °F52 %29.41 in15.0 miWest (270°)21.9 mph32.2 mphMostly Cloudy
1:15 AM8.6 °F0.0 °F15.0 miWest (270°)16.1 mph28.8 mphSnowLight Snow Showers
2:00 AM8.6 °F-5.8 °F52 %29.44 in15.0 miWest (270°)25.3 mph31.1 mphSnowLight Snow Showers
2:36 AM8.6 °F0.0 °F15.0 miWest (260°)20.7 mph28.8 mphMostly Cloudy
3:00 AM6.8 °F-5.8 °F56 %29.46 in15.0 miWest (270°)23.0 mph31.1 mphMostly Cloudy
4:00 AM7.0 °F-3.0 °F48 %29.49 inWest (270°)21.9 mph
4:00 AM6.8 °F-5.8 °F56 %29.49 in15.0 miWest (270°)23.0 mph29.9 mphScattered Clouds
5:00 AM6.8 °F-5.8 °F56 %29.53 in15.0 miWest (270°)19.6 mphScattered Clouds
6:00 AM5.0 °F-5.8 °F61 %29.57 in10.0 miWest (270°)17.3 mphScattered Clouds
7:00 AM5.0 °F-4.0 °F52 %29.61 inWest (270°)18.4 mph
7:00 AM5.0 °F-5.8 °F61 %29.61 in15.0 miWest (270°)19.6 mph27.6 mphScattered Clouds
8:00 AM5.0 °F-9.4 °F52 %29.66 in20.0 miWest (270°)20.7 mph27.6 mphScattered Clouds
9:00 AM5.0 °F-7.6 °F56 %29.69 in20.0 miWest (260°)19.6 mphMostly Cloudy
10:00 AM4.0 °F-6.0 °F49 %29.74 inWest (260°)17.3 mph
10:00 AM5.0 °F-9.4 °F52 %29.74 in20.0 miWest (270°)20.7 mph28.8 mphMostly Cloudy
11:00 AM6.8 °F-7.6 °F52 %29.77 in20.0 miWSW (240°)19.6 mphMostly Cloudy
12:00 PM8.6 °F-5.8 °F52 %29.78 in20.0 miWSW (250°)19.6 mphMostly Cloudy
1:00 PM9.0 °F-3.0 °F44 %29.79 inWest (280°)13.8 mph
1:00 PM8.6 °F-7.6 °F48 %29.79 in30.0 miWest (270°)16.1 mph21.9 mphMostly Cloudy
2:00 PM8.6 °F-5.8 °F52 %29.82 in30.0 miWest (270°)15.0 mph21.9 mphMostly Cloudy
3:00 PM8.6 °F-7.6 °F48 %29.83 in30.0 miWSW (240°)16.1 mphMostly Cloudy
4:00 PM9.0 °F-4.0 °F39 %29.86 inWest (280°)12.7 mph
4:00 PM8.6 °F-7.6 °F48 %29.86 in30.0 miWest (270°)17.3 mphOvercast
5:00 PM6.8 °F-9.4 °F48 %29.89 in30.0 miWest (270°)13.8 mph20.7 mphOvercast
6:00 PM6.8 °F-9.4 °F48 %29.91 in15.0 miWest (270°)9.2 mphOvercast
7:00 PM5.0 °F-6.0 °F44 %29.95 inWest (280°)11.5 mph
7:00 PM5.0 °F-11.2 °F47 %29.95 in15.0 miWest (280°)11.5 mphOvercast
8:00 PM5.0 °F-11.2 °F47 %29.98 in15.0 miWest (280°)16.1 mphMostly Cloudy
9:00 PM3.2 °F-11.2 °F51 %30.01 in15.0 miWest (270°)10.4 mphMostly Cloudy
10:00 PM2.0 °F-8.0 °F46 %30.03 inWest (260°)8.1 mph
10:00 PM1.4 °F-13.0 °F51 %30.04 in15.0 miWSW (250°)10.4 mphScattered Clouds
11:00 PM-0.4 °F-13.0 °F55 %30.06 in15.0 miWest (280°)9.2 mphPartly Cloudy
Hourly data recorded from CYQB, located miles away from Quebec City, Quebec







STORIES FROM OUR PARTNERS